TimeCDT,TemperatureF,Dew PointF,Humidity,Sea Level PressureIn,VisibilityMPH,Wind Direction,Wind SpeedMPH,Gust SpeedMPH,PrecipitationIn,Events,Conditions,WindDirDegrees,DateUTC
12:15 AM,69.8,66.2,88,30.05,7.0,Calm,Calm,-,N/A,,Clear,0,2013-09-12 05:15:00
12:35 AM,69.8,66.2,88,30.05,8.0,Calm,Calm,-,N/A,,Clear,0,2013-09-12 05:35:00
12:55 AM,69.8,66.2,88,30.04,5.0,Calm,Calm,-,N/A,,Clear,0,2013-09-12 05:55:00
1:15 AM,68.0,64.4,88,30.04,6.0,South,3.5,-,N/A,,Clear,170,2013-09-12 06:15:00
1:35 AM,69.8,64.4,83,30.04,8.0,Calm,Calm,-,N/A,,Clear,0,2013-09-12 06:35:00
1:55 AM,68.0,64.4,88,30.04,5.0,Calm,Calm,-,N/A,,Clear,0,2013-09-12 06:55:00
2:15 AM,68.0,64.4,88,30.04,8.0,Calm,Calm,-,N/A,,Clear,0,2013-09-12 07:15:00
2:35 AM,68.0,66.2,94,30.04,8.0,South,3.5,-,N/A,,Clear,180,2013-09-12 07:35:00
2:55 AM,68.0,64.4,88,30.03,7.0,Calm,Calm,-,N/A,,Clear,0,2013-09-12 07:55:00
3:15 AM,68.0,64.4,88,30.03,8.0,South,3.5,-,N/A,,Clear,190,2013-09-12 08:15:00
3:35 AM,69.8,66.2,88,30.02,9.0,South,3.5,-,N/A,,Clear,190,2013-09-12 08:35:00
3:55 AM,69.8,66.2,88,30.02,9.0,Calm,Calm,-,N/A,,Clear,0,2013-09-12 08:55:00
4:15 AM,68.0,64.4,88,30.02,7.0,SW,3.5,-,N/A,,Clear,220,2013-09-12 09:15:00
4:35 AM,68.0,64.4,88,30.02,7.0,SW,3.5,-,N/A,,Clear,220,2013-09-12 09:35:00
4:55 AM,69.8,66.2,88,30.02,8.0,SW,4.6,-,N/A,,Clear,230,2013-09-12 09:55:00
5:15 AM,69.8,66.2,88,30.02,7.0,SW,3.5,-,N/A,,Clear,230,2013-09-12 10:15:00
5:35 AM,69.8,66.2,88,30.02,7.0,SW,3.5,-,N/A,,Clear,230,2013-09-12 10:35:00
5:55 AM,69.8,66.2,88,30.02,7.0,SW,5.8,-,N/A,,Clear,220,2013-09-12 10:55:00
6:15 AM,69.8,66.2,88,30.02,7.0,SW,5.8,-,N/A,,Clear,230,2013-09-12 11:15:00
6:35 AM,69.8,66.2,88,30.03,4.0,West,3.5,-,N/A,,Clear,270,2013-09-12 11:35:00
6:55 AM,69.8,66.2,88,30.02,4.0,SW,4.6,-,N/A,,Clear,230,2013-09-12 11:55:00
7:15 AM,69.8,66.2,88,30.03,4.0,WSW,5.8,-,N/A,,Clear,240,2013-09-12 12:15:00
7:35 AM,71.6,68.0,88,30.03,4.0,West,3.5,-,N/A,,Clear,260,2013-09-12 12:35:00
7:55 AM,73.4,69.8,88,30.03,5.0,West,5.8,-,N/A,,Clear,260,2013-09-12 12:55:00
8:15 AM,75.2,69.8,83,30.03,5.0,West,3.5,-,N/A,,Clear,260,2013-09-12 13:15:00
8:35 AM,77.0,71.6,83,30.03,7.0,West,3.5,-,N/A,,Clear,280,2013-09-12 13:35:00
8:55 AM,78.8,71.6,78,30.03,8.0,NW,9.2,-,N/A,,Clear,310,2013-09-12 13:55:00
9:15 AM,78.8,71.6,78,30.04,9.0,NW,9.2,-,N/A,,Clear,310,2013-09-12 14:15:00
9:35 AM,80.6,71.6,74,30.04,10.0,NNW,8.1,-,N/A,,Partly Cloudy,330,2013-09-12 14:35:00
9:55 AM,80.6,69.8,70,30.04,9.0,NNW,4.6,-,N/A,,Clear,340,2013-09-12 14:55:00
10:15 AM,80.6,69.8,70,30.04,10.0,North,9.2,-,N/A,,Clear,10,2013-09-12 15:15:00
10:35 AM,80.6,69.8,70,30.04,7.0,North,9.2,-,N/A,,Clear,360,2013-09-12 15:35:00
10:55 AM,80.6,69.8,70,30.04,10.0,North,6.9,-,N/A,,Scattered Clouds,350,2013-09-12 15:55:00
11:15 AM,82.4,69.8,66,30.04,10.0,NNE,8.1,-,N/A,,Partly Cloudy,20,2013-09-12 16:15:00
11:35 AM,82.4,66.2,58,30.03,10.0,NNE,6.9,-,N/A,,Partly Cloudy,30,2013-09-12 16:35:00
11:55 AM,82.4,68.0,62,30.04,10.0,North,9.2,-,N/A,,Mostly Cloudy,10,2013-09-12 16:55:00
12:15 PM,80.6,66.2,61,30.04,10.0,NNW,6.9,-,N/A,,Overcast,340,2013-09-12 17:15:00
12:35 PM,82.4,68.0,62,30.03,10.0,NNW,5.8,-,N/A,,Overcast,340,2013-09-12 17:35:00
12:55 PM,80.6,68.0,65,30.02,10.0,Calm,Calm,-,N/A,,Scattered Clouds,0,2013-09-12 17:55:00
1:15 PM,80.6,68.0,65,30.00,10.0,Calm,Calm,-,N/A,,Scattered Clouds,0,2013-09-12 18:15:00
1:35 PM,84.2,66.2,55,29.99,10.0,NW,3.5,-,N/A,,Partly Cloudy,320,2013-09-12 18:35:00
1:55 PM,84.2,66.2,55,29.98,10.0,South,4.6,-,N/A,,Clear,170,2013-09-12 18:55:00
2:15 PM,87.8,66.2,49,29.97,10.0,NNW,6.9,-,N/A,,Clear,330,2013-09-12 19:15:00
2:35 PM,86.0,68.0,55,29.96,10.0,NW,5.8,-,N/A,,Clear,320,2013-09-12 19:35:00
2:55 PM,86.0,68.0,55,29.96,10.0,NW,5.8,-,N/A,,Clear,310,2013-09-12 19:55:00
3:15 PM,84.2,66.2,55,29.95,10.0,WNW,8.1,-,N/A,,Mostly Cloudy,300,2013-09-12 20:15:00
3:35 PM,84.2,64.4,51,29.95,10.0,NNW,9.2,-,N/A,,Mostly Cloudy,340,2013-09-12 20:35:00
3:55 PM,84.2,66.2,55,29.94,10.0,North,8.1,-,N/A,,Partly Cloudy,360,2013-09-12 20:55:00
4:15 PM,82.4,66.2,58,29.94,10.0,North,10.4,16.1,N/A,,Clear,350,2013-09-12 21:15:00
4:35 PM,82.4,64.4,54,29.94,10.0,NNW,8.1,-,N/A,,Clear,340,2013-09-12 21:35:00
4:55 PM,82.4,64.4,54,29.94,10.0,NNW,6.9,-,N/A,,Partly Cloudy,340,2013-09-12 21:55:00
5:15 PM,80.6,64.4,58,29.94,10.0,North,5.8,-,N/A,,Clear,360,2013-09-12 22:15:00
5:35 PM,80.6,64.4,58,29.94,10.0,North,6.9,-,N/A,,Clear,350,2013-09-12 22:35:00
5:55 PM,80.6,64.4,58,29.95,10.0,NNW,6.9,-,N/A,,Clear,340,2013-09-12 22:55:00
6:15 PM,80.6,64.4,58,29.94,10.0,NNW,4.6,-,N/A,,Clear,340,2013-09-12 23:15:00
6:35 PM,78.8,62.6,57,29.95,10.0,NNW,5.8,-,N/A,,Clear,330,2013-09-12 23:35:00
6:55 PM,77.0,60.8,57,29.94,10.0,NW,4.6,-,N/A,,Clear,320,2013-09-12 23:55:00
7:15 PM,73.4,60.8,65,29.95,10.0,Calm,Calm,-,N/A,,Clear,0,2013-09-13 00:15:00
7:35 PM,69.8,62.6,78,29.95,8.0,Calm,Calm,-,N/A,,Clear,0,2013-09-13 00:35:00
7:55 PM,69.8,62.6,78,29.96,10.0,Calm,Calm,-,N/A,,Clear,0,2013-09-13 00:55:00
8:15 PM,66.2,62.6,88,29.97,10.0,Calm,Calm,-,N/A,,Clear,0,2013-09-13 01:15:00
8:35 PM,66.2,60.8,83,29.97,10.0,Calm,Calm,-,N/A,,Clear,0,2013-09-13 01:35:00
8:55 PM,-9999,-9999,N/A,29.97,10.0,SW,3.5,-,N/A,,Clear,230,2013-09-13 01:55:00
9:15 PM,-9999,-9999,N/A,29.97,10.0,WSW,3.5,-,N/A,,Clear,240,2013-09-13 02:15:00
9:35 PM,-9999,-9999,N/A,29.97,10.0,SW,4.6,-,N/A,,Clear,230,2013-09-13 02:35:00
9:55 PM,-9999,-9999,N/A,29.98,10.0,West,3.5,-,N/A,,Clear,280,2013-09-13 02:55:00
10:15 PM,-9999,-9999,N/A,29.98,10.0,NW,6.9,-,N/A,,Clear,320,2013-09-13 03:15:00
10:35 PM,-9999,-9999,N/A,29.98,10.0,NNW,6.9,-,N/A,,Partly Cloudy,340,2013-09-13 03:35:00
10:55 PM,-9999,-9999,N/A,29.98,10.0,NNW,8.1,-,N/A,,Mostly Cloudy,330,2013-09-13 03:55:00
11:15 PM,-9999,-9999,N/A,29.99,10.0,NNW,6.9,-,N/A,,Partly Cloudy,340,2013-09-13 04:15:00
11:35 PM,-9999,-9999,N/A,29.99,10.0,NNW,6.9,-,N/A,,Clear,340,2013-09-13 04:35:00
11:55 PM,-9999,-9999,N/A,29.99,10.0,NNW,5.8,-,N/A,,Clear,330,2013-09-13 04:55:00